Wind_Speed
13 13 13 13 14 15 16 16 17 17 17 16 15 14 14 13 13 12 11 10 10 9 9 9 9 9 10 10 10 10 9 9 9 8 7 6 5 5 4 4 3 2 2 2 2 3 4 4 4
12 12 13 13 14 15 16 17 17 17 17 16 15 14 14 14 13 13 11 10 10 9 10 10 10 10 10 10 10 10 10 9 9 8 7 6 5 4 4 3 3 2 2 1 1 2 3 4 4
11 11 13 14 15 16 17 17 17 17 16 15 15 14 13 13 13 13 12 11 10 10 9 9 10 10 10 10 10 10 9 9 9 8 7 7 6 5 4 3 3 2 1 2 1 2 3 4 3
12 13 13 14 15 16 17 16 17 16 16 15 14 14 13 13 13 13 13 12 11 10 10 9 9 10 10 10 10 10 9 9 8 7 7 6 6 5 5 4 3 2 1 2 2 2 3 3 3
11 13 14 14 15 16 16 16 16 16 15 14 14 13 13 13 13 13 13 13 12 12 11 10 10 10 10 10 10 9 9 9 8 7 6 5 5 5 4 3 3 2 1 1 2 2 2 2 3
12 12 14 14 16 16 16 16 16 15 14 13 13 13 13 14 14 13 13 13 13 12 12 11 10 10 10 10 9 9 9 9 8 7 6 5 4 4 3 3 2 1 1 1 1 2 2 2 3
11 12 14 14 14 15 15 15 14 14 13 13 13 13 14 14 14 13 13 13 13 12 12 11 10 10 10 10 9 8 8 8 8 7 6 5 4 4 3 2 2 2 1 1 1 2 2 3 3
10 12 14 14 13 14 14 14 13 13 13 12 12 12 13 14 14 14 14 13 13 12 11 11 10 10 10 9 9 8 8 8 7 6 5 5 4 3 3 2 2 2 2 2 2 3 3 4 4
9 11 13 13 13 13 14 14 13 13 13 13 12 12 13 13 14 14 13 13 12 11 11 11 11 10 10 10 9 8 8 8 7 6 5 5 4 3 3 3 2 2 3 3 3 3 4 5 5
9 10 11 12 12 12 12 13 13 13 13 13 12 12 12 13 13 13 13 12 12 11 11 11 11 10 10 10 9 8 7 7 8 7 6 5 4 3 3 3 2 2 3 3 3 3 4 5 6
8 9 10 10 11 11 11 11 12 12 12 11 11 12 12 13 13 13 12 12 12 11 11 11 10 10 10 10 10 9 8 8 8 7 6 6 4 3 3 3 3 2 3 3 3 4 5 5 7
7 8 8 9 9 10 10 10 10 10 10 10 10 11 12 12 13 13 12 12 12 12 11 10 10 9 9 9 9 10 9 8 8 7 7 6 6 4 4 4 3 3 3 3 4 5 6 7 8
5 6 6 7 7 8 8 8 9 9 8 9 10 10 11 12 12 12 12 11 11 11 11 10 10 10 10 10 10 10 9 8 8 7 7 7 6 6 6 5 4 4 4 4 5 5 6 6 7
3 3 3 4 5 6 6 6 7 8 8 9 9 9 10 10 11 12 12 11 11 11 11 10 9 9 9 9 10 10 10 9 8 8 7 7 7 6 6 5 5 5 4 5 5 5 7 7 7
3 2 1 2 3 4 5 6 6 6 7 8 8 8 8 9 9 10 10 10 10 10 10 9 9 9 9 9 10 10 10 10 9 8 9 8 7 7 6 6 6 6 5 6 7 6 7 7 8
3 2 1 0 1 2 4 6 6 6 7 8 8 8 7 7 8 9 9 10 10 10 10 9 8 8 8 9 9 10 10 9 9 8 8 8 7 7 7 7 7 7 6 7 7 7 7 6 7
5 4 2 1 1 1 2 4 4 5 6 7 7 7 7 7 7 8 8 9 9 10 10 9 8 8 8 9 9 9 10 9 9 9 8 8 7 7 7 8 8 8 7 8 9 8 7 6 7
6 6 5 4 3 2 2 3 3 4 5 6 6 6 7 7 7 7 7 8 8 9 9 9 8 8 9 9 8 9 9 9 9 8 8 7 8 8 8 9 9 9 9 10 10 9 8 7 7
9 8 7 7 6 5 3 2 3 4 5 5 6 5 6 6 7 7 7 7 8 8 8 8 8 7 8 9 9 9 9 9 8 8 8 8 8 8 9 9 9 9 10 10 11 10 8 8 8
11 9 8 8 8 7 6 4 4 4 4 4 5 5 5 6 6 7 7 7 8 8 8 8 7 7 7 8 8 8 9 10 10 9 9 9 9 9 9 9 10 10 10 10 10 10 8 9 8
13 11 10 10 10 10 8 6 5 4 4 4 4 5 5 5 5 6 7 7 8 9 9 8 7 7 8 9 8 9 9 10 10 10 10 10 10 9 9 9 10 10 10 10 10 10 8 8 8
14 12 12 12 12 12 11 9 6 7 6 5 5 5 5 5 5 6 6 8 8 9 10 9 8 8 9 9 9 9 9 10 10 10 10 10 9 9 10 10 11 11 10 10 10 11 10 10 11
15 15 15 14 14 14 13 12 9 8 7 6 6 6 6 5 5 6 7 9 10 11 11 10 9 9 9 10 10 10 10 10 11 11 10 10 9 10 11 11 12 12 12 12 12 12 12 12 12
17 17 17 16 16 15 14 15 11 9 8 7 7 8 7 7 7 7 8 9 10 12 12 12 10 10 10 11 11 11 11 11 12 11 11 11 10 11 12 12 13 13 13 13 13 13 14 14 14
19 19 19 19 18 18 16 16 14 12 10 9 9 9 9 9 9 9 10 10 11 12 12 12 11 12 12 12 12 12 12 12 12 12 13 12 12 12 13 14 14 14 15 15 14 14 15 15 16
20 21 21 21 21 19 19 18 15 14 13 11 11 12 11 10 10 11 11 12 12 12 13 14 14 15 15 14 14 14 13 14 13 13 14 14 14 14 15 15 16 16 16 16 16 16 16 17 17
22 21 21 22 22 21 21 19 17 16 16 14 13 13 13 12 12 13 12 13 13 14 15 15 17 17 17 16 16 16 16 15 15 15 15 16 16 16 16 17 17 17 17 17 17 18 17 17 18
23 22 22 23 23 23 21 20 18 17 16 15 15 15 14 14 14 14 14 14 14 15 16 17 18 18 17 18 18 19 19 17 16 17 17 17 18 18 18 18 18 19 19 19 19 20 20 20 20
24 24 23 23 23 23 23 21 19 18 17 16 15 16 16 16 16 16 15 15 16 17 18 19 19 18 18 19 20 20 20 18 18 18 18 18 19 19 19 19 19 20 20 21 21 21 22 22 22
25 25 24 24 24 24 23 22 19 19 19 18 17 17 17 17 18 18 18 18 19 19 19 19 19 19 20 21 21 22 21 20 20 20 20 20 20 21 21 21 21 21 21 22 23 23 23 24 24
Wind_Direction
68 68 68 65 66 65 67 67 65 64 63 62 62 62 59 60 61 62 60 59 63 69 74 76 77 78 79 79 76 74 76 79 82 82 83 88 87 90 90 95 97 111 127 137 153 168 176 179 180
69 71 71 69 68 69 69 68 65 64 63 62 62 62 60 60 61 60 58 58 62 68 75 77 77 76 76 76 75 76 77 78 78 76 79 82 80 86 84 88 83 94 129 145 144 155 166 175 174
65 71 74 72 70 71 70 68 65 61 61 61 59 60 61 61 61 59 58 59 62 67 74 78 79 75 77 76 73 73 74 72 70 68 69 74 78 81 72 78 84 75 101 121 131 135 156 165 170
66 75 77 75 72 72 68 66 64 60 58 60 61 62 62 62 61 60 59 59 64 70 73 77 78 76 77 76 73 70 70 67 65 62 61 64 69 70 68 72 80 62 65 134 144 147 148 164 176
75 79 80 78 75 72 69 66 64 60 59 60 60 62 63 62 61 60 59 58 65 73 75 74 75 76 76 75 73 70 65 61 57 55 53 54 58 62 60 62 54 56 59 172 187 185 196 191 179
71 80 81 78 73 73 69 66 63 62 62 61 60 59 61 62 62 61 60 61 64 69 71 71 73 72 72 71 69 65 59 57 55 52 49 46 44 42 43 32 29 28 28 350 259 240 238 223 212
69 74 77 76 75 73 70 66 64 64 62 61 60 60 60 61 62 62 63 63 64 67 67 67 71 69 71 70 66 62 56 50 46 44 44 42 34 26 24 17 3 340 330 332 279 250 244 224 219
70 73 74 71 73 72 68 66 64 66 62 60 59 61 59 60 59 61 63 64 64 64 65 68 72 70 69 66 61 58 52 45 41 39 40 37 31 23 11 356 342 315 309 308 299 267 250 240 244
79 75 73 71 71 69 67 65 63 62 60 62 61 60 59 58 56 58 60 60 62 64 64 66 68 67 66 64 60 53 47 42 38 37 41 39 32 24 9 354 341 321 312 304 308 278 257 248 247
84 72 70 72 71 66 66 65 61 60 59 60 61 60 59 57 56 57 60 58 56 58 61 60 63 64 64 62 56 51 47 46 42 42 46 41 33 26 5 5 343 317 310 302 291 277 262 252 245
86 74 76 76 74 67 65 61 58 59 57 58 61 61 59 56 55 56 60 58 54 52 52 56 59 57 55 52 49 47 45 44 42 44 43 40 38 35 23 22 9 348 318 295 289 280 272 265 255
90 79 75 73 73 69 65 61 57 57 54 51 56 60 57 53 51 54 56 56 54 50 50 54 53 52 52 48 46 46 46 44 40 37 38 34 34 35 24 12 357 347 332 317 303 290 279 272 265
104 89 74 66 65 67 66 61 59 58 55 49 50 56 55 51 51 53 52 51 52 52 50 50 49 49 48 44 41 38 39 40 37 30 29 25 20 24 24 14 358 344 333 328 312 305 295 279 268
129 111 90 73 62 64 55 54 53 54 52 49 46 49 53 48 49 50 49 47 48 47 44 43 42 44 43 42 40 38 38 36 31 26 23 20 20 16 13 10 4 356 345 338 327 303 293 283 276
176 156 117 73 68 65 49 41 42 51 50 48 44 45 47 44 47 45 42 39 40 41 38 36 35 37 39 41 39 36 34 31 27 25 23 16 12 12 9 3 359 359 348 339 330 314 296 290 285
198 194 155 112 73 50 50 45 40 44 45 45 43 45 45 38 45 42 36 34 33 30 31 29 32 34 37 37 33 30 26 22 20 17 13 8 3 355 0 358 355 351 342 338 334 320 308 297 289
225 228 222 227 242 329 21 35 37 33 33 34 37 41 43 36 38 37 31 28 26 22 21 24 27 28 24 24 23 21 20 16 11 7 6 5 2 355 357 357 352 344 337 340 341 330 316 305 294
237 238 237 246 240 263 320 5 19 12 9 16 28 35 37 31 30 28 21 16 16 13 12 15 17 16 13 11 11 11 9 7 4 1 359 0 358 356 349 349 348 348 345 347 344 330 317 309 302
236 241 244 246 245 250 274 317 344 356 2 16 21 25 23 19 17 15 10 4 1 2 3 6 6 1 359 358 356 357 357 358 357 359 357 353 351 350 346 346 343 342 346 350 351 346 338 327 315
232 241 246 250 252 256 260 282 306 323 336 354 3 10 7 8 5 7 6 359 355 352 350 356 352 345 345 346 346 350 351 352 353 353 352 346 341 339 339 341 339 339 343 347 346 342 338 332 326
238 246 249 252 252 259 263 264 278 289 309 322 328 347 350 351 353 351 352 346 348 349 347 345 345 336 336 339 341 343 341 341 341 343 344 340 339 337 334 334 334 333 334 333 332 332 327 324 318
241 246 250 251 252 257 267 269 274 281 288 302 307 326 328 326 337 345 347 340 332 331 337 337 340 336 334 331 329 332 331 330 332 332 333 331 331 333 332 329 325 325 325 323 323 322 320 315 310
244 245 250 252 256 261 268 274 275 282 286 292 297 306 316 315 311 318 327 331 331 328 326 329 332 328 329 332 328 325 324 325 324 323 322 321 321 323 323 324 322 319 317 317 315 313 312 307 304
243 245 248 253 259 263 267 271 275 279 282 285 287 291 299 301 298 297 306 316 326 329 324 320 324 321 322 324 322 324 322 320 318 316 315 317 315 314 314 314 313 313 313 312 311 309 308 306 302
243 246 249 253 258 263 266 269 275 276 273 277 280 284 289 296 296 298 300 306 316 325 328 324 320 316 316 316 314 314 313 312 313 312 310 310 310 310 310 307 306 307 307 308 307 307 306 305 304
243 248 253 258 263 264 265 268 274 274 274 274 278 281 282 287 291 296 302 308 312 315 314 314 310 311 312 310 307 305 304 305 306 306 307 307 306 305 306 304 304 303 303 304 303 304 303 301 301
245 250 254 259 261 261 264 267 269 275 275 274 277 279 281 285 290 293 298 305 305 304 305 308 306 305 306 309 307 301 299 299 301 303 305 305 305 303 302 301 300 300 299 299 300 302 302 301 300
245 249 252 255 261 263 265 269 274 276 278 276 275 277 279 282 290 293 292 298 299 301 303 305 306 304 302 304 305 302 299 297 299 301 302 301 301 302 300 299 297 296 295 295 297 298 298 298 298
244 246 250 255 260 265 266 268 274 276 276 275 276 278 280 283 289 292 291 292 295 298 299 302 303 302 302 303 304 302 300 296 299 300 301 301 300 299 298 296 296 295 294 293 294 295 294 294 295
243 245 249 254 261 264 266 268 271 274 274 275 276 279 282 285 288 290 292 295 297 296 297 300 301 301 302 303 301 301 299 298 301 303 302 301 300 299 297 296 295 296 294 292 293 293 293 293 293
Height
5892 5891 5891 5891 5891 5890 5888 5887 5886 5885 5885 5884 5883 5883 5883 5883 5883 5884 5882 5880 5879 5879 5878 5878 5878 5878 5878 5878 5878 5878 5878 5878 5878 5878 5878 5879 5879 5880 5880 5881 5881 5882 5883 5883 5884 5884 5885 5886 5886
5894 5893 5894 5893 5892 5891 5890 5889 5888 5887 5887 5886 5886 5885 5885 5884 5883 5883 5881 5881 5880 5880 5879 5879 5879 5879 5879 5879 5879 5879 5879 5879 5879 5879 5879 5880 5880 5880 5881 5881 5882 5882 5883 5883 5884 5884 5885 5886 5886
5895 5895 5896 5895 5893 5892 5892 5890 5890 5889 5889 5888 5888 5887 5887 5886 5885 5884 5883 5882 5881 5880 5880 5880 5880 5880 5880 5880 5880 5880 5880 5880 5880 5880 5880 5880 5881 5881 5881 5881 5881 5882 5883 5883 5883 5884 5885 5886 5886
5897 5897 5897 5897 5895 5894 5893 5893 5892 5891 5891 5890 5890 5889 5888 5888 5887 5886 5884 5883 5882 5881 5881 5881 5881 5881 5881 5881 5881 5881 5881 5881 5881 5881 5881 5881 5882 5882 5882 5881 5881 5882 5883 5882 5883 5884 5885 5886 5886
5899 5899 5899 5898 5897 5896 5895 5895 5894 5893 5893 5892 5892 5891 5890 5889 5888 5887 5886 5884 5883 5883 5883 5882 5882 5882 5882 5882 5882 5882 5882 5882 5882 5882 5882 5882 5882 5882 5882 5882 5882 5882 5883 5883 5883 5884 5885 5885 5886
5901 5901 5900 5899 5899 5898 5897 5897 5896 5895 5895 5894 5893 5893 5892 5891 5890 5889 5888 5886 5885 5884 5884 5884 5884 5883 5883 5883 5883 5883 5883 5883 5883 5883 5883 5883 5883 5883 5883 5883 5883 5883 5883 5883 5883 5884 5884 5885 5886
5904 5902 5901 5901 5901 5900 5900 5899 5898 5898 5897 5896 5896 5895 5893 5892 5892 5890 5889 5888 5887 5887 5886 5885 5885 5885 5884 5884 5884 5884 5884 5884 5883 5883 5883 5883 5883 5883 5883 5882 5883 5883 5882 5883 5883 5883 5884 5885 5885
5905 5905 5903 5903 5902 5902 5901 5900 5900 5900 5899 5899 5898 5896 5895 5895 5894 5892 5891 5890 5889 5889 5888 5887 5887 5886 5886 5886 5885 5885 5885 5884 5884 5883 5883 5883 5883 5882 5882 5882 5882 5882 5882 5883 5883 5883 5883 5884 5885
5906 5907 5905 5904 5904 5904 5903 5902 5902 5902 5901 5900 5899 5898 5897 5896 5895 5894 5893 5893 5892 5891 5890 5889 5889 5888 5887 5887 5886 5886 5886 5885 5884 5884 5884 5883 5883 5882 5882 5882 5882 5882 5882 5882 5882 5882 5883 5883 5884
5908 5908 5907 5906 5906 5906 5905 5905 5904 5903 5903 5902 5902 5900 5899 5898 5897 5896 5895 5895 5894 5893 5892 5891 5890 5890 5889 5888 5887 5887 5886 5886 5885 5885 5884 5884 5883 5883 5882 5882 5882 5882 5881 5881 5881 5881 5882 5882 5883
5909 5909 5909 5908 5907 5907 5907 5907 5906 5905 5904 5904 5903 5902 5901 5900 5898 5898 5897 5896 5895 5894 5893 5892 5892 5891 5890 5889 5889 5888 5887 5886 5886 5886 5885 5884 5883 5883 5882 5882 5882 5881 5881 5881 5881 5881 5881 5881 5881
5911 5910 5910 5910 5909 5908 5908 5908 5908 5907 5906 5906 5905 5904 5903 5902 5900 5899 5899 5898 5897 5896 5895 5894 5893 5892 5891 5891 5890 5889 5888 5887 5887 5886 5886 5885 5884 5883 5883 5882 5882 5881 5881 5881 5880 5880 5880 5880 5880
5912 5912 5911 5911 5910 5909 5909 5909 5909 5908 5907 5907 5906 5905 5904 5903 5902 5901 5900 5899 5898 5897 5896 5895 5894 5894 5893 5892 5891 5890 5889 5888 5888 5887 5886 5885 5884 5883 5882 5882 5882 5881 5881 5880 5880 5880 5879 5879 5879
5912 5912 5912 5912 5912 5911 5911 5910 5910 5909 5908 5908 5907 5906 5905 5904 5903 5903 5901 5900 5899 5898 5898 5897 5896 5894 5893 5892 5892 5891 5890 5889 5888 5887 5886 5885 5885 5884 5883 5882 5881 5881 5880 5880 5879 5878 5878 5878 5877
5912 5913 5913 5913 5912 5912 5912 5911 5910 5910 5909 5909 5908 5907 5906 5905 5904 5904 5903 5901 5900 5899 5898 5897 5896 5895 5894 5893 5892 5892 5891 5890 5888 5887 5886 5885 5884 5884 5883 5882 5882 5881 5880 5879 5878 5877 5877 5876 5875
5912 5913 5913 5913 5913 5913 5914 5912 5912 5911 5910 5910 5909 5907 5907 5906 5905 5905 5904 5903 5901 5900 5899 5898 5897 5896 5895 5894 5893 5892 5891 5890 5889 5887 5886 5885 5884 5883 5883 5882 5881 5880 5879 5878 5877 5876 5875 5874 5874
5912 5912 5912 5913 5913 5913 5913 5913 5912 5911 5911 5910 5909 5908 5907 5906 5906 5905 5904 5904 5902 5901 5899 5898 5897 5896 5895 5894 5893 5892 5891 5890 5889 5887 5886 5885 5884 5883 5882 5881 5880 5879 5878 5877 5876 5874 5874 5873 5873
5911 5911 5912 5912 5912 5912 5912 5913 5912 5912 5911 5910 5909 5908 5907 5907 5906 5905 5904 5903 5903 5901 5900 5899 5897 5896 5895 5894 5893 5892 5891 5890 5889 5887 5886 5885 5884 5882 5881 5880 5879 5878 5877 5876 5874 5873 5872 5872 5871
5910 5910 5911 5911 5911 5911 5912 5912 5912 5911 5911 5910 5910 5909 5908 5907 5906 5905 5904 5903 5902 5901 5900 5899 5897 5896 5895 5894 5893 5892 5891 5890 5888 5887 5885 5884 5883 5882 5881 5879 5878 5877 5876 5874 5873 5872 5871 5870 5869
5909 5909 5910 5910 5910 5910 5910 5911 5911 5911 5911 5910 5910 5908 5908 5907 5906 5905 5904 5903 5901 5900 5899 5898 5897 5895 5894 5893 5892 5891 5890 5889 5887 5886 5884 5883 5882 5881 5880 5878 5877 5876 5875 5873 5872 5871 5870 5869 5868
5907 5908 5909 5909 5909 5909 5909 5910 5910 5910 5910 5910 5909 5909 5908 5907 5905 5904 5904 5902 5901 5899 5898 5897 5895 5894 5893 5892 5891 5890 5889 5888 5886 5885 5884 5882 5881 5880 5879 5877 5876 5874 5873 5872 5871 5870 5868 5867 5866
5906 5907 5907 5907 5907 5907 5908 5908 5909 5909 5909 5909 5908 5908 5907 5906 5905 5904 5903 5901 5899 5898 5897 5895 5894 5893 5892 5890 5889 5888 5887 5886 5885 5883 5882 5881 5879 5878 5877 5876 5874 5873 5872 5871 5869 5868 5867 5865 5864
5904 5904 5905 5905 5905 5906 5906 5906 5909 5908 5908 5908 5907 5907 5906 5905 5904 5903 5902 5900 5898 5897 5895 5894 5893 5892 5890 5889 5888 5887 5885 5884 5883 5881 5880 5878 5877 5876 5875 5874 5872 5871 5870 5868 5867 5866 5865 5863 5862
5901 5902 5902 5902 5903 5904 5904 5904 5906 5906 5906 5906 5906 5905 5904 5904 5902 5901 5900 5899 5897 5896 5894 5892 5891 5890 5888 5887 5886 5885 5883 5882 5880 5879 5877 5876 5875 5874 5872 5871 5870 5868 5867 5865 5864 5863 5862 5860 5859
5897 5899 5899 5900 5900 5901 5902 5902 5904 5904 5904 5904 5904 5903 5902 5902 5900 5899 5898 5896 5895 5894 5892 5891 5889 5888 5887 5885 5883 5882 5880 5879 5878 5876 5875 5873 5872 5870 5869 5868 5866 5865 5864 5862 5861 5859 5858 5856 5855
5893 5895 5896 5897 5897 5898 5899 5899 5901 5901 5901 5901 5901 5900 5900 5899 5898 5897 5896 5894 5893 5891 5890 5888 5886 5885 5884 5882 5880 5878 5877 5876 5875 5873 5872 5870 5868 5867 5865 5864 5863 5861 5860 5859 5857 5855 5854 5852 5850
5890 5891 5892 5893 5893 5894 5894 5896 5897 5897 5898 5898 5898 5897 5897 5896 5895 5894 5893 5891 5890 5889 5887 5885 5883 5881 5880 5878 5877 5875 5874 5872 5871 5869 5868 5866 5864 5863 5861 5860 5858 5857 5856 5854 5853 5851 5849 5848 5846
5886 5887 5888 5889 5889 5889 5891 5892 5893 5894 5894 5894 5894 5894 5893 5893 5892 5891 5890 5888 5887 5885 5884 5881 5879 5877 5876 5874 5873 5871 5870 5868 5866 5865 5863 5862 5860 5858 5856 5855 5854 5852 5851 5849 5848 5846 5844 5843 5841
5882 5883 5883 5885 5885 5886 5886 5890 5890 5890 5890 5890 5890 5890 5889 5889 5888 5887 5886 5884 5883 5881 5880 5878 5875 5873 5872 5870 5869 5867 5865 5863 5862 5860 5858 5856 5855 5853 5851 5850 5848 5847 5845 5843 5842 5840 5838 5837 5835
5876 5878 5880 5881 5881 5882 5882 5887 5886 5886 5886 5886 5886 5885 5885 5884 5884 5882 5881 5880 5878 5876 5875 5872 5871 5869 5867 5865 5864 5862 5860 5858 5856 5855 5853 5851 5850 5848 5846 5844 5842 5840 5839 5837 5835 5834 5832 5831 5829